SCP
0 0 0 0 0 0 0 0 0 0 0 0 0 0 0 0 0 0 0 1 0 0 0 0 0 0 1 1 1 1 1 1 1 1 1 1 1 0 0 0 0 0 0
0 0 0 0 0 0 0 0 0 0 0 0 0 0 0 0 0 0 0 0 0 1 1 0 0 0 0 1 1 1 1 1 1 1 1 1 1 0 0 0 0 0 0
0 0 0 0 0 0 0 0 0 0 0 0 0 0 0 0 0 0 0 0 0 0 1 0 1 1 1 1 1 1 1 1 1 1 1 1 1 1 1 0 0 0 0
0 0 0 0 0 0 0 0 0 0 0 0 0 0 0 0 0 0 0 0 0 0 0 1 1 1 0 1 1 1 1 1 1 1 1 1 1 1 1 0 0 0 0
0 0 0 0 0 0 0 0 0 0 0 0 0 0 0 0 0 0 0 0 0 0 0 1 1 0 0 0 1 1 1 1 1 1 1 1 1 1 1 1 1 0 0
0 0 0 0 0 0 0 0 0 0 0 0 0 0 0 0 0 0 0 0 0 0 0 0 1 1 1 0 0 0 1 1 1 1 1 1 1 1 0 0 0 0 0
0 0 0 0 0 0 0 0 0 0 0 0 0 0 0 0 0 0 0 0 0 0 0 0 0 0 1 1 0 0 0 0 1 1 1 0 0 1 0 0 1 0 0
0 0 0 0 0 0 0 0 0 0 0 0 0 0 0 0 0 0 0 0 0 0 0 0 0 0 0 1 1 0 0 0 1 1 1 1 1 1 0 1 1 0 0
0 0 0 0 0 0 0 0 0 0 0 0 0 0 0 0 0 0 0 0 0 0 0 0 0 0 0 0 0 0 0 0 0 0 1 1 1 1 1 1 0 0 0
0 0 0 0 0 0 0 0 0 0 0 0 0 0 0 0 0 0 0 0 0 0 0 0 0 0 0 0 0 0 0 0 0 0 0 0 0 1 0 1 0 0 0
0 0 0 0 0 0 0 0 0 0 0 0 0 0 0 0 0 0 -0 0 0 0 0 0 0 0 0 0 0 0 0 0 0 0 0 0 0 0 0 0 0 0 0
0 0 0 0 0 0 0 0 0 0 0 0 0 0 0 0 0 0 0 0 0 0 0 0 0 0 0 0 0 0 0 0 0 0 0 0 0 0 0 0 0 1 0
0 0 0 0 0 0 0 0 0 0 0 0 0 0 0 0 0 0 0 0 0 0 0 0 0 0 0 0 0 0 0 0 0 0 0 0 0 0 0 0 0 0 0
0 0 0 0 0 0 0 0 0 0 0 0 0 0 0 0 0 0 0 0 0 0 0 0 0 0 0 0 0 0 0 0 0 0 -0 0 0 0 0 0 0 0 -0
0 0 0 0 0 0 0 0 0 0 0 0 -0 0 0 0 0 0 0 0 0 0 0 -0 0 0 0 0 0 0 0 0 0 0 0 0 0 0 0 0 0 0 0
0 0 0 0 0 0 0 0 0 0 0 -0 0 0 0 0 0 0 0 0 0 0 0 -0 0 0 0 0 0 0 0 0 0 0 0 0 0 0 0 0 0 0 0
0 0 0 0 0 0 0 0 0 0 0 0 0 0 -0 0 0 0 0 0 0 0 -0 0 0 0 0 0 0 0 0 0 0 0 0 0 0 0 0 0 0 0 0
0 0 0 0 0 0 -0 0 0 0 0 0 0 0 0 0 0 0 0 0 0 0 0 -0 0 0 0 0 0 -0 0 0 0 0 0 0 0 0 0 0 0 0 0
0 0 0 0 0 0 -0 0 0 0 0 0 0 0 0 0 0 0 0 0 0 0 0 -0 0 0 0 0 -0 0 0 0 0 0 0 0 0 0 0 0 0 0 0
0 -0 -0 0 0 0 -0 0 0 0 0 0 0 -0 0 -0 0 -0 -0 0 0 0 -0 0 0 0 0 0 0 0 0 0 0 0 0 0 0 0 0 0 0 -0 0
-0 0 0 0 0 0 0 0 0 0 0 0 0 0 0 -0 -0 -0 -0 -0 0 0 -0 0 0 0 0 0 0 0 0 0 0 0 0 0 0 0 0 0 0 -0 -0
0 0 0 0 0 0 0 0 0 0 0 0 0 -0 0 -0 0 0 0 0 0 0 0 -0 0 0 0 0 0 0 0 0 0 0 0 -0 -0 -0 -0 -0 0 -0 -0
0 0 0 0 0 -0 -0 0 -0 0 0 0 0 0 0 0 0 0 0 0 0 0 0 0 0 0 0 0 0 0 0 -0 -0 -0 -0 -0 -0 -0 0 -0 -0 -0 -0
0 0 0 0 0 0 0 0 0 0 0 0 0 0 0 -0 0 0 0 0 0 0 0 0 0 0 0 0 0 0 0 0 0 0 0 0 0 0 0 -0 -0 -0 -0
0 0 0 0 0 0 0 0 0 0 0 0 0 0 0 0 0 0 0 0 0 0 0 0 0 0 0 0 0 0 0 -0 -0 -0 0 -0 0 0 0 0 0 -0 -0
0 0 0 0 0 0 0 0 0 0 0 0 0 0 0 0 0 0 0 0 0 0 0 0 0 0 0 0 0 0 0 -0 -0 0 0 0 0 0 0 -0 0 -0 0
Wind_Speed_500mb
25 18 9 8 12 21 27 32 12 16 23 20 16 19 24 25 32 31 24 22 33 34 33 33 33 33 36 43 45 45 40 40 41 41 40 38 33 29 25 22 23 21 20
25 18 8 7 15 23 29 28 15 22 29 26 24 20 23 29 32 31 44 34 26 24 35 43 38 34 39 46 47 54 49 44 44 44 43 40 35 31 28 27 30 25 23
29 25 8 7 18 25 30 14 23 24 29 34 34 31 22 25 33 36 32 45 47 40 31 31 39 38 36 35 47 53 58 54 52 49 46 43 41 37 33 36 35 33 30
31 21 24 19 22 27 13 19 24 33 38 42 38 27 24 28 33 33 31 36 39 43 36 37 39 40 41 41 44 51 59 61 60 58 55 51 47 42 39 38 40 41 40
38 34 27 23 15 24 19 22 28 36 44 29 23 21 30 38 25 23 31 35 34 34 38 37 43 45 37 39 42 47 59 63 64 62 59 55 51 46 43 40 42 46 44
37 27 23 30 27 22 24 27 33 39 34 30 31 35 32 30 38 34 38 38 40 43 44 46 37 48 50 43 42 42 54 60 64 61 58 55 53 45 43 43 44 42 43
31 19 27 22 28 33 35 26 34 37 31 29 35 34 36 30 14 26 35 37 41 36 45 39 44 42 42 46 47 31 39 52 60 55 56 51 52 45 44 43 49 46 49
28 23 25 29 29 34 26 25 33 36 34 23 28 34 25 36 13 15 19 24 32 40 38 41 42 43 46 45 50 43 43 49 53 53 54 48 49 48 47 47 52 50 58
35 37 34 35 34 32 28 27 37 38 32 26 19 22 15 11 46 34 30 29 30 33 43 41 47 45 38 38 39 40 42 38 50 51 60 60 51 50 42 44 44 51 53
46 41 27 34 33 28 32 32 27 30 30 31 24 22 21 25 18 33 34 39 36 37 41 43 49 42 35 39 40 39 41 37 39 50 52 55 58 58 49 48 48 53 51
31 25 25 24 28 26 27 32 31 24 27 31 28 28 24 29 30 35 58 57 48 45 49 50 49 52 46 36 41 38 45 39 42 47 48 49 48 40 40 47 45 51 59
28 30 33 28 22 22 25 26 24 21 23 27 26 26 31 34 40 43 45 53 56 45 43 51 50 54 47 47 35 40 44 42 41 36 54 47 43 41 42 44 49 61 57
26 27 24 21 16 14 21 29 18 18 20 27 28 30 32 35 38 42 46 51 40 42 38 39 49 59 50 42 46 50 55 37 35 30 40 42 43 42 41 44 64 58 47
26 36 32 20 23 19 18 29 18 17 24 31 34 33 33 34 38 44 47 41 35 37 26 21 16 38 36 33 37 41 52 50 45 44 43 42 39 44 50 61 36 41 38
38 31 31 27 18 17 21 23 24 17 26 31 29 27 30 33 33 36 43 28 21 14 29 16 6 15 28 29 30 31 45 52 50 50 45 48 44 50 55 61 31 43 36
35 34 35 31 29 22 16 17 18 19 28 25 19 23 25 23 24 32 21 12 12 17 21 22 3 3 13 23 31 30 26 40 42 40 43 41 46 56 49 46 37 41 40
43 37 33 24 30 23 18 12 18 19 11 10 15 23 28 21 21 23 13 6 9 15 27 16 11 11 14 19 26 32 35 36 28 33 42 49 50 48 44 44 43 43 42
41 39 35 26 28 24 20 15 15 16 10 7 12 22 23 21 18 20 22 7 12 11 11 9 15 18 21 19 23 29 41 47 52 49 51 51 42 41 45 46 43 40 37
33 34 31 32 25 20 19 19 18 16 9 6 8 16 21 20 16 18 14 13 8 11 6 7 21 26 21 27 34 56 52 48 43 40 41 44 45 44 41 37 36 35 35
30 34 40 34 29 25 22 19 18 21 8 5 5 10 19 22 22 18 10 13 11 19 23 26 36 33 33 33 66 61 54 50 51 46 40 35 33 32 31 31 30 30 30
23 25 39 47 27 24 25 18 22 16 6 12 7 6 11 20 23 17 15 17 21 32 44 34 40 63 53 64 60 56 55 47 39 36 35 33 30 28 27 25 23 23 25
21 24 21 27 28 30 29 16 25 15 8 15 5 2 2 10 19 21 23 21 22 18 19 41 55 53 53 47 52 48 45 45 39 35 33 33 28 25 23 20 19 15 14
19 20 20 19 24 24 29 23 25 18 15 12 6 6 5 9 13 17 17 14 12 7 9 13 21 28 34 35 35 34 32 37 36 36 29 26 25 23 20 21 21 20 19
17 19 21 19 21 26 28 27 29 23 18 12 9 9 10 9 6 8 9 14 15 22 20 24 26 24 21 26 21 20 18 16 14 17 18 15 14 20 21 23 21 25 23
20 19 23 25 26 26 34 31 26 19 23 18 13 9 11 2 2 6 4 8 10 12 18 20 24 25 23 29 28 29 27 27 27 25 22 14 13 24 23 28 30 24 22
18 19 17 22 23 26 29 22 20 18 26 16 13 11 10 8 9 12 13 9 8 10 11 14 16 21 25 28 30 27 26 26 25 27 24 28 21 17 29 30 24 28 26
Wind_Direction_500mb
297 315 256 353 321 308 306 324 327 334 354 342 340 323 313 297 268 239 245 265 263 259 257 248 249 244 248 243 236 235 229 222 218 214 211 210 207 207 207 206 196 208 210
337 329 196 283 314 303 305 318 343 337 321 307 298 294 296 290 291 290 247 252 269 264 257 255 255 260 256 252 242 236 233 227 226 221 218 216 214 210 206 195 209 220 220
318 335 296 286 324 308 301 313 320 304 295 292 291 281 293 294 290 280 287 257 258 261 271 266 257 251 245 253 247 242 236 230 224 224 227 223 219 215 208 207 219 227 225
310 322 304 273 303 305 320 305 311 300 299 301 293 273 267 283 275 288 293 287 271 262 266 275 266 255 250 244 248 243 237 233 230 222 223 224 225 222 221 221 221 230 232
303 307 290 315 290 308 311 299 300 307 309 300 300 299 290 282 281 271 276 279 279 271 274 270 267 270 261 253 248 244 236 233 231 229 226 224 224 228 228 230 231 228 234
302 297 292 305 291 298 291 293 302 306 314 311 300 302 312 313 274 259 265 264 268 266 265 265 265 271 266 262 257 250 238 233 233 229 227 224 224 223 229 229 225 222 217
301 284 294 291 291 297 301 298 296 301 312 313 308 302 305 327 298 257 277 261 261 271 263 263 264 257 264 251 257 260 249 237 234 230 230 227 225 219 222 229 222 217 205
294 274 280 280 291 295 293 298 302 303 308 323 312 316 323 329 286 254 287 264 258 261 258 258 259 261 264 255 250 262 254 244 232 228 224 216 219 219 220 231 226 224 220
306 303 283 280 280 283 288 296 292 300 299 310 308 314 313 305 312 315 300 271 261 260 257 261 259 257 253 255 249 255 238 255 234 227 224 217 219 230 232 216 218 221 217
291 296 287 270 283 278 279 290 293 297 296 303 302 298 291 308 317 313 313 309 275 265 254 256 251 252 243 245 254 250 245 233 244 226 222 220 211 218 209 214 214 213 207
286 281 288 274 289 272 277 288 298 295 295 300 294 297 288 294 299 301 307 310 302 275 264 259 254 246 245 246 237 247 249 240 236 231 222 209 205 210 211 210 204 206 197
286 284 287 288 300 291 283 297 295 294 296 299 294 283 288 290 306 311 309 306 307 295 268 260 252 244 249 244 248 241 234 234 233 251 229 220 216 220 215 215 199 204 192
279 284 288 301 318 307 303 302 290 289 301 310 303 297 288 292 298 307 317 312 307 299 292 265 255 250 238 244 240 237 235 232 219 229 211 220 226 226 214 205 199 185 183
259 274 277 289 292 282 281 293 294 305 304 305 304 308 298 301 296 308 314 309 299 299 315 318 291 224 227 244 236 232 226 226 227 206 218 218 222 226 209 202 167 190 194
282 262 259 257 285 265 292 279 282 284 293 296 300 304 307 310 308 308 315 298 280 295 322 346 303 203 227 233 219 241 231 226 220 216 208 219 222 217 203 190 176 202 182
258 265 263 262 271 268 272 282 289 279 289 291 314 331 329 327 323 328 312 308 273 280 279 311 290 261 216 203 205 218 213 212 205 207 208 200 193 182 171 181 179 179 171
255 270 261 267 257 264 263 280 290 286 295 330 327 347 349 344 346 351 352 332 298 281 286 276 209 207 190 181 188 189 196 190 174 176 184 184 175 170 183 174 172 175 183
265 261 256 270 266 260 258 269 254 273 264 298 324 349 355 2 5 8 11 16 326 265 250 233 168 148 174 157 167 175 159 155 153 152 156 164 171 169 166 170 176 180 189
269 247 255 254 245 259 239 245 250 269 237 282 337 350 7 9 17 11 15 28 37 73 89 205 181 163 145 195 188 164 158 149 149 149 150 154 159 166 171 176 184 197 210
273 251 248 246 256 252 249 236 230 253 242 225 64 20 21 23 35 36 6 59 82 89 82 97 98 155 180 162 136 143 144 145 143 146 150 158 167 176 187 197 205 208 208
280 277 241 237 246 237 216 221 243 215 204 170 110 14 29 29 40 50 59 107 112 98 88 78 68 114 127 130 134 141 141 146 149 155 158 163 169 175 179 184 190 196 200
266 280 252 244 218 241 226 221 232 251 226 171 168 352 44 47 55 65 76 108 95 90 89 106 90 116 119 132 136 131 142 153 151 158 156 154 155 156 162 164 165 163 178
302 271 255 246 221 215 209 209 224 245 218 202 203 91 105 72 60 87 103 106 79 107 112 133 141 123 132 135 139 146 146 151 145 156 167 167 172 178 179 172 174 178 181
312 288 261 249 216 238 199 207 213 226 222 196 203 139 157 91 67 68 128 103 71 89 111 135 130 130 139 148 163 155 148 160 165 170 181 198 205 202 197 195 198 198 209
306 294 236 243 225 218 214 214 224 227 213 208 194 157 163 165 69 153 135 121 73 98 98 116 138 150 158 167 171 166 176 175 171 187 178 196 207 190 206 215 202 200 210
322 308 265 227 220 210 211 205 213 212 195 192 182 181 216 279 236 195 167 164 185 112 87 126 142 149 153 151 162 168 176 195 206 206 204 197 198 213 224 213 218 211 212
Wind_Speed_850mb
25 18 9 8 12 21 27 32 12 16 23 20 16 19 24 25 32 31 24 22 33 34 33 33 33 33 36 43 45 45 40 40 41 41 40 38 33 29 25 22 23 21 20
25 18 8 7 15 23 29 28 15 22 29 26 24 20 23 29 32 31 44 34 26 24 35 43 38 34 39 46 47 54 49 44 44 44 43 40 35 31 28 27 30 25 23
29 25 8 7 18 25 30 14 23 24 29 34 34 31 22 25 33 36 32 45 47 40 31 31 39 38 36 35 47 53 58 54 52 49 46 43 41 37 33 36 35 33 30
31 21 24 19 22 27 13 19 24 33 38 42 38 27 24 28 33 33 31 36 39 43 36 37 39 40 41 41 44 51 59 61 60 58 55 51 47 42 39 38 40 41 40
38 34 27 23 15 24 19 22 28 36 44 29 23 21 30 38 25 23 31 35 34 34 38 37 43 45 37 39 42 47 59 63 64 62 59 55 51 46 43 40 42 46 44
37 27 23 30 27 22 24 27 33 39 34 30 31 35 32 30 38 34 38 38 40 43 44 46 37 48 50 43 42 42 54 60 64 61 58 55 53 45 43 43 44 42 43
31 19 27 22 28 33 35 26 34 37 31 29 35 34 36 30 14 26 35 37 41 36 45 39 44 42 42 46 47 31 39 52 60 55 56 51 52 45 44 43 49 46 49
28 23 25 29 29 34 26 25 33 36 34 23 28 34 25 36 13 15 19 24 32 40 38 41 42 43 46 45 50 43 43 49 53 53 54 48 49 48 47 47 52 50 58
35 37 34 35 34 32 28 27 37 38 32 26 19 22 15 11 46 34 30 29 30 33 43 41 47 45 38 38 39 40 42 38 50 51 60 60 51 50 42 44 44 51 53
46 41 27 34 33 28 32 32 27 30 30 31 24 22 21 25 18 33 34 39 36 37 41 43 49 42 35 39 40 39 41 37 39 50 52 55 58 58 49 48 48 53 51
31 25 25 24 28 26 27 32 31 24 27 31 28 28 24 29 30 35 58 57 48 45 49 50 49 52 46 36 41 38 45 39 42 47 48 49 48 40 40 47 45 51 59
28 30 33 28 22 22 25 26 24 21 23 27 26 26 31 34 40 43 45 53 56 45 43 51 50 54 47 47 35 40 44 42 41 36 54 47 43 41 42 44 49 61 57
26 27 24 21 16 14 21 29 18 18 20 27 28 30 32 35 38 42 46 51 40 42 38 39 49 59 50 42 46 50 55 37 35 30 40 42 43 42 41 44 64 58 47
26 36 32 20 23 19 18 29 18 17 24 31 34 33 33 34 38 44 47 41 35 37 26 21 16 38 36 33 37 41 52 50 45 44 43 42 39 44 50 61 36 41 38
38 31 31 27 18 17 21 23 24 17 26 31 29 27 30 33 33 36 43 28 21 14 29 16 6 15 28 29 30 31 45 52 50 50 45 48 44 50 55 61 31 43 36
35 34 35 31 29 22 16 17 18 19 28 25 19 23 25 23 24 32 21 12 12 17 21 22 3 3 13 23 31 30 26 40 42 40 43 41 46 56 49 46 37 41 40
43 37 33 24 30 23 18 12 18 19 11 10 15 23 28 21 21 23 13 6 9 15 27 16 11 11 14 19 26 32 35 36 28 33 42 49 50 48 44 44 43 43 42
41 39 35 26 28 24 20 15 15 16 10 7 12 22 23 21 18 20 22 7 12 11 11 9 15 18 21 19 23 29 41 47 52 49 51 51 42 41 45 46 43 40 37
33 34 31 32 25 20 19 19 18 16 9 6 8 16 21 20 16 18 14 13 8 11 6 7 21 26 21 27 34 56 52 48 43 40 41 44 45 44 41 37 36 35 35
30 34 40 34 29 25 22 19 18 21 8 5 5 10 19 22 22 18 10 13 11 19 23 26 36 33 33 33 66 61 54 50 51 46 40 35 33 32 31 31 30 30 30
23 25 39 47 27 24 25 18 22 16 6 12 7 6 11 20 23 17 15 17 21 32 44 34 40 63 53 64 60 56 55 47 39 36 35 33 30 28 27 25 23 23 25
21 24 21 27 28 30 29 16 25 15 8 15 5 2 2 10 19 21 23 21 22 18 19 41 55 53 53 47 52 48 45 45 39 35 33 33 28 25 23 20 19 15 14
19 20 20 19 24 24 29 23 25 18 15 12 6 6 5 9 13 17 17 14 12 7 9 13 21 28 34 35 35 34 32 37 36 36 29 26 25 23 20 21 21 20 19
17 19 21 19 21 26 28 27 29 23 18 12 9 9 10 9 6 8 9 14 15 22 20 24 26 24 21 26 21 20 18 16 14 17 18 15 14 20 21 23 21 25 23
20 19 23 25 26 26 34 31 26 19 23 18 13 9 11 2 2 6 4 8 10 12 18 20 24 25 23 29 28 29 27 27 27 25 22 14 13 24 23 28 30 24 22
18 19 17 22 23 26 29 22 20 18 26 16 13 11 10 8 9 12 13 9 8 10 11 14 16 21 25 28 30 27 26 26 25 27 24 28 21 17 29 30 24 28 26
Wind_Direction_850mb
297 315 256 353 321 308 306 324 327 334 354 342 340 323 313 297 268 239 245 265 263 259 257 248 249 244 248 243 236 235 229 222 218 214 211 210 207 207 207 206 196 208 210
337 329 196 283 314 303 305 318 343 337 321 307 298 294 296 290 291 290 247 252 269 264 257 255 255 260 256 252 242 236 233 227 226 221 218 216 214 210 206 195 209 220 220
318 335 296 286 324 308 301 313 320 304 295 292 291 281 293 294 290 280 287 257 258 261 271 266 257 251 245 253 247 242 236 230 224 224 227 223 219 215 208 207 219 227 225
310 322 304 273 303 305 320 305 311 300 299 301 293 273 267 283 275 288 293 287 271 262 266 275 266 255 250 244 248 243 237 233 230 222 223 224 225 222 221 221 221 230 232
303 307 290 315 290 308 311 299 300 307 309 300 300 299 290 282 281 271 276 279 279 271 274 270 267 270 261 253 248 244 236 233 231 229 226 224 224 228 228 230 231 228 234
302 297 292 305 291 298 291 293 302 306 314 311 300 302 312 313 274 259 265 264 268 266 265 265 265 271 266 262 257 250 238 233 233 229 227 224 224 223 229 229 225 222 217
301 284 294 291 291 297 301 298 296 301 312 313 308 302 305 327 298 257 277 261 261 271 263 263 264 257 264 251 257 260 249 237 234 230 230 227 225 219 222 229 222 217 205
294 274 280 280 291 295 293 298 302 303 308 323 312 316 323 329 286 254 287 264 258 261 258 258 259 261 264 255 250 262 254 244 232 228 224 216 219 219 220 231 226 224 220
306 303 283 280 280 283 288 296 292 300 299 310 308 314 313 305 312 315 300 271 261 260 257 261 259 257 253 255 249 255 238 255 234 227 224 217 219 230 232 216 218 221 217
291 296 287 270 283 278 279 290 293 297 296 303 302 298 291 308 317 313 313 309 275 265 254 256 251 252 243 245 254 250 245 233 244 226 222 220 211 218 209 214 214 213 207
286 281 288 274 289 272 277 288 298 295 295 300 294 297 288 294 299 301 307 310 302 275 264 259 254 246 245 246 237 247 249 240 236 231 222 209 205 210 211 210 204 206 197
286 284 287 288 300 291 283 297 295 294 296 299 294 283 288 290 306 311 309 306 307 295 268 260 252 244 249 244 248 241 234 234 233 251 229 220 216 220 215 215 199 204 192
279 284 288 301 318 307 303 302 290 289 301 310 303 297 288 292 298 307 317 312 307 299 292 265 255 250 238 244 240 237 235 232 219 229 211 220 226 226 214 205 199 185 183
259 274 277 289 292 282 281 293 294 305 304 305 304 308 298 301 296 308 314 309 299 299 315 318 291 224 227 244 236 232 226 226 227 206 218 218 222 226 209 202 167 190 194
282 262 259 257 285 265 292 279 282 284 293 296 300 304 307 310 308 308 315 298 280 295 322 346 303 203 227 233 219 241 231 226 220 216 208 219 222 217 203 190 176 202 182
258 265 263 262 271 268 272 282 289 279 289 291 314 331 329 327 323 328 312 308 273 280 279 311 290 261 216 203 205 218 213 212 205 207 208 200 193 182 171 181 179 179 171
255 270 261 267 257 264 263 280 290 286 295 330 327 347 349 344 346 351 352 332 298 281 286 276 209 207 190 181 188 189 196 190 174 176 184 184 175 170 183 174 172 175 183
265 261 256 270 266 260 258 269 254 273 264 298 324 349 355 2 5 8 11 16 326 265 250 233 168 148 174 157 167 175 159 155 153 152 156 164 171 169 166 170 176 180 189
269 247 255 254 245 259 239 245 250 269 237 282 337 350 7 9 17 11 15 28 37 73 89 205 181 163 145 195 188 164 158 149 149 149 150 154 159 166 171 176 184 197 210
273 251 248 246 256 252 249 236 230 253 242 225 64 20 21 23 35 36 6 59 82 89 82 97 98 155 180 162 136 143 144 145 143 146 150 158 167 176 187 197 205 208 208
280 277 241 237 246 237 216 221 243 215 204 170 110 14 29 29 40 50 59 107 112 98 88 78 68 114 127 130 134 141 141 146 149 155 158 163 169 175 179 184 190 196 200
266 280 252 244 218 241 226 221 232 251 226 171 168 352 44 47 55 65 76 108 95 90 89 106 90 116 119 132 136 131 142 153 151 158 156 154 155 156 162 164 165 163 178
302 271 255 246 221 215 209 209 224 245 218 202 203 91 105 72 60 87 103 106 79 107 112 133 141 123 132 135 139 146 146 151 145 156 167 167 172 178 179 172 174 178 181
312 288 261 249 216 238 199 207 213 226 222 196 203 139 157 91 67 68 128 103 71 89 111 135 130 130 139 148 163 155 148 160 165 170 181 198 205 202 197 195 198 198 209
306 294 236 243 225 218 214 214 224 227 213 208 194 157 163 165 69 153 135 121 73 98 98 116 138 150 158 167 171 166 176 175 171 187 178 196 207 190 206 215 202 200 210
322 308 265 227 220 210 211 205 213 212 195 192 182 181 216 279 236 195 167 164 185 112 87 126 142 149 153 151 162 168 176 195 206 206 204 197 198 213 224 213 218 211 212